Location: *
(33.8649°S, 62.1526°E)
Time: 12:05:07
(UTC+00:00)

Tiangong - Visible Passes

Search period start: 03 December 2022 00:00
Search period end: 13 December 2022 00:00
Orbit: 386 x 394 km, 41.5° (Epoch: 02 December)

Date Brightness Start Highest point End Pass type
(mag) Time Alt. Az. Time Alt. Az. Time Alt. Az.
03 Dec 0.0 22:39:35 18° NE 22:39:35 18° NE 22:41:37 10° E visible
04 Dec -2.1 23:16:29 30° NW 23:17:57 74° NNE 23:21:12 10° ESE visible
05 Dec -0.4 22:21:00 29° ENE 22:21:00 29° ENE 22:23:00 10° ESE visible
05 Dec -0.9 23:53:50 10° W 23:56:54 36° SSW 23:59:59 10° SE visible
06 Dec -1.6 22:57:43 37° W 22:58:42 57° SSW 23:01:56 10° ESE visible
07 Dec -0.1 22:02:04 28° ESE 22:02:04 28° ESE 22:03:48 10° ESE visible
07 Dec -0.2 23:34:53 10° WSW 23:37:42 26° SSW 23:40:32 10° SE visible
08 Dec -0.8 22:38:38 30° SW 22:39:21 34° SSW 22:42:23 10° SE visible
09 Dec 0.5 21:42:51 22° SE 21:42:51 22° SE 21:44:13 10° SE visible
09 Dec 0.2 23:15:46 10° WSW 23:18:23 22° S 23:21:01 10° SE visible
10 Dec -0.1 22:19:19 24° SSW 22:19:53 25° SSW 22:22:41 10° SE visible
10 Dec 0.4 23:54:50 10° SW 23:57:28 22° S 00:00:05 10° ESE visible
11 Dec 1.0 21:23:30 16° SE 21:23:30 16° SE 21:24:24 10° SE visible
11 Dec 0.4 22:56:22 10° SW 22:58:54 21° S 23:01:28 10° SE visible
12 Dec 0.3 21:59:57 21° SSW 22:00:18 21° S 22:02:54 10° SE visible
12 Dec 0.1 23:35:01 10° SW 23:37:52 26° SSE 23:40:42 10° ESE visible
